Location: *
(38.2540°S, 156.8185°W)
Time: 09:16:24
(UTC+00:00)

Daily predictions for brighter satellites

Satellite Brightness Start Highest point End
(mag) Time Altitude Azimuth Time Altitude Azimuth Time Altitude Azimuth
Tiangong 1.0 12:06:09 10° E 12:06:09 10° E 12:06:10 10° E
CZ-4 R/B 4.4 12:07:36 38° NE 12:09:04 54° ESE 12:13:39 10° S
Thor Agena Rocket 4.4 12:07:22 23° NE 12:10:15 45° ESE 12:15:12 10° S
Cosmos 1953 3.1 12:11:34 43° SW 12:11:34 43° SW 12:14:38 10° S
Cosmos 1934 Rocket 4.4 12:05:20 10° SSW 12:11:22 45° W 12:12:05 43° WNW
ADEOS II 2.1 12:12:08 59° WNW 12:12:18 59° W 12:17:33 10° SSW
Meteor 1-16 Rocket 4.5 12:12:15 47° W 12:12:47 48° WSW 12:18:14 10° S
Genesis I 3.8 12:10:12 10° SSW 12:13:08 50° S 12:13:08 50° S
Cosmos 783 Rocket 4.4 12:10:27 10° SSW 12:15:48 81° WNW 12:16:42 61° N
Cosmos 1605 Rocket 3.9 12:10:51 10° SSW 12:16:58 69° W 12:18:26 51° NNW
Cosmos 304 Rocket 3.8 12:17:09 64° NNE 12:17:44 72° ENE 12:22:35 10° SSE
Cosmos 2322 Rocket 3.7 12:15:24 10° S 12:20:32 34° ESE 12:25:37 10° NE
Meteor 1-21 Rocket 4.1 12:19:01 10° S 12:24:40 80° W 12:26:14 49° N
Cosmos 1782 Rocket 4.5 12:24:59 36° WSW 12:24:59 36° WSW 12:29:00 10° S
Resurs 1-4 Rocket 3.4 12:26:24 25° W 12:26:24 25° W 12:30:05 10° SW
IDEFIX/ARIANE 42P 3.8 12:26:50 25° W 12:26:50 25° W 12:30:34 10° SW
Cosmos 1315 Rocket 3.6 12:23:12 10° SSW 12:26:17 41° WSW 12:26:17 41° WSW
Cosmos 1328 4.0 12:23:25 10° SSW 12:26:53 61° SW 12:26:53 61° SW
Cosmos 2333 Rocket 4.5 12:23:27 10° S 12:28:01 24° SE 12:32:34 10° ENE
Envisat 4.5 12:30:11 10° NE 12:34:48 36° ESE 12:39:28 10° S
Cosmos 2100 Rocket 4.4 12:30:54 10° S 12:37:03 62° E 12:42:04 16° NNE
Meteor 1-4 Rocket 2.8 12:33:55 10° S 12:37:06 53° E 12:37:07 53° E
Okean 2 Rocket 3.6 12:35:42 37° NNE 12:37:10 56° E 12:41:34 10° SSE
Cosmos 371 Rocket 3.6 12:37:08 47° WNW 12:37:59 53° WSW 12:42:50 10° S
CZ-2D R/B 3.6 12:39:10 21° W 12:39:10 21° W 12:42:50 10° SW
Cosmos 1892 3.8 12:36:08 10° SSW 12:38:32 31° SW 12:38:32 31° SW
ATLAS 3B R/B 2.5 12:33:58 10° SW 12:40:05 54° WNW 12:42:45 33° N
Cosmos 1153 Rocket 4.4 12:34:00 10° S 12:40:16 77° W 12:43:17 33° N
Cosmos 990 Rocket 3.9 12:40:12 48° NW 12:41:39 76° WSW 12:46:56 10° SSE
SL-16 R/B 2.2 12:37:11 10° SSW 12:42:56 81° ESE 12:48:23 11° NNE
Cosmos 1898 Rocket 4.0 12:40:46 31° NNE 12:43:02 54° ENE 12:48:12 10° SSE
Centaur D AC-25 3.8 12:47:18 21° NNE 12:47:18 21° NNE 12:48:53 10° NE
Lacrosse 5 rocket 1.6 12:44:27 10° SW 12:48:06 60° SE 12:51:50 10° NE
Cosmos 1825 2.9 12:44:43 10° SSW 12:47:25 35° WSW 12:47:25 35° WSW
Cosmos 1975 Rocket 3.7 12:44:33 10° SSW 12:48:34 37° W 12:48:34 37° W
Cosmos 1980 Rocket 3.8 12:45:50 10° SW 12:48:43 18° W 12:48:43 18° W
ATLAS CENTAUR R/B 1.3 12:47:42 10° SW 12:52:08 69° WNW 12:53:47 36° N
Cosmos 1000 Rocket 4.5 12:49:16 31° N 12:52:32 84° W 12:58:59 10° S
IRS-1D 3.8 12:48:33 14° NNE 12:53:03 71° ESE 12:58:25 10° S
YAOGAN 6 4.5 12:50:41 10° NE 12:53:32 26° ESE 12:56:25 10° SSE
Cosmos 1937 Rocket 4.2 12:50:58 24° NNE 12:53:47 47° ENE 12:58:45 10° SSE
Okean 1 Rocket 3.8 12:54:29 23° NNE 12:57:01 52° E 13:01:26 10° SSE
Cosmos 1455 3.3 12:58:47 27° WSW 12:58:47 27° WSW 13:01:50 10° SSW
FENGYUN 3A 4.4 13:02:08 30° WNW 13:03:02 32° W 13:07:53 10° SW
SL-8 R/B 3.6 13:05:14 36° WNW 13:07:15 88° SW 13:12:07 10° SE
Cosmos 1536 Rocket 3.6 13:03:04 10° S 13:07:38 85° E 13:10:46 20° N
COBE Rocket 3.8 13:04:52 17° NNE 13:08:31 85° ESE 13:13:15 10° S
Cosmos 1242 Rocket 4.1 13:10:25 10° SSE 13:13:24 31° ESE 13:16:21 10° NE
Cosmos 2151 Rocket 3.9 13:13:36 33° NW 13:15:18 51° W 13:19:47 10° S
Cosmos 372 Rocket 4.0 13:12:37 25° N 13:15:41 80° ENE 13:20:51 10° SSE
MOZ.5/SAFIR/RUBIN 5/SL-8 4.2 13:11:53 10° S 13:16:25 48° WSW 13:18:26 29° NW
SL-16 R/B 3.7 13:13:09 10° SSE 13:18:58 40° E 13:24:42 10° NNE
ISS -1.3 13:17:10 11° WSW 13:19:21 18° SSW 13:21:45 10° SSE
Cosmos 1459 Rocket 4.1 13:14:11 10° SSW 13:20:34 66° W 13:26:06 14° N
Cosmos 2084 3.9 13:18:37 25° N 13:21:03 59° ENE 13:25:41 10° SE
Timation 1 Rocket 4.4 13:19:04 25° NW 13:22:37 66° WSW 13:28:37 10° SSE
IRIDIUM 104 4.5 13:21:00 10° S 13:26:19 79° E 13:31:34 10° N
Cosmos 1441 Rocket 3.5 13:25:52 30° NW 13:27:28 51° WSW 13:31:17 10° S
Cosmos 1346 Rocket 3.1 13:25:06 17° N 13:27:58 63° E 13:31:52 10° SSE
CZ-2C R/B 2.5 13:24:53 13° N 13:29:33 62° W 13:34:41 10° SSW
CZ-2C R/B 4.2 13:28:16 23° NW 13:30:23 29° W 13:35:18 10° SW
Cosmos 1538 Rocket 4.5 13:26:43 10° SSW 13:31:49 42° WNW 13:36:06 14° NNW
IRIDIUM 114 4.3 13:30:09 10° S 13:35:28 85° W 13:40:43 10° N
ALOS 3.7 13:36:57 18° WNW 13:37:48 19° W 13:41:10 10° SW
USA 229 DEB 3.4 13:31:37 10° SW 13:38:08 75° WNW 13:44:09 10° NNE
USA 229 3.4 13:31:41 10° SW 13:38:12 76° WNW 13:44:14 10° NNE
Tiangong -2.0 13:38:14 23° W 13:40:02 71° SSW 13:43:13 10° ESE
IRIDIUM 103 4.3 13:39:22 10° S 13:44:39 69° W 13:49:51 10° N
Cosmos 292 Rocket 3.9 13:41:47 12° N 13:46:14 76° ENE 13:51:08 10° SSE
Cosmos 1455 Rocket 3.3 13:41:55 10° N 13:46:15 71° E 13:50:38 10° SSE
ARIANE 5 R/B 4.1 13:42:45 10° NE 13:47:36 40° ESE 13:52:28 10° S
Cosmos 2360 Rocket 2.2 13:42:17 10° SSW 13:47:54 62° WNW 13:53:28 10° N
CBERS-1 4.0 13:43:32 10° N 13:48:39 80° WNW 13:53:51 10° SSW
NOSS 3-1 (A) 4.3 13:45:32 10° WSW 13:49:36 20° WNW 13:51:48 16° NW
Cosmos 2016 Rocket 4.2 13:43:53 10° SSW 13:50:13 59° W 13:56:26 10° N
Cosmos 2123 Rocket 4.5 13:46:58 15° NW 13:51:45 43° WSW 13:57:42 10° S
Meteor 1-28 Rocket 3.0 13:49:12 10° S 13:52:54 76° WSW 13:56:15 12° NNW
Cosmos 2219 Rocket 2.5 13:48:53 10° SSW 13:54:32 72° ESE 14:00:08 10° NNE
USA 281 3.3 13:48:16 10° N 13:54:43 57° WNW 14:01:14 10° SSW
NOAA 11 4.4 13:50:37 10° N 13:55:57 51° W 14:01:23 10° SSW
FAST Rocket 4.3 13:53:56 10° S 13:57:58 82° W 14:00:45 10° N
SL-27 R/B 3.3 14:01:51 15° WNW 14:03:42 27° WSW 14:06:25 10° S
Cosmos 2322 Rocket 2.9 13:59:32 10° SW 14:04:27 31° WNW 14:09:19 10° NNW
Meteor 2-15 Rocket 4.4 14:04:45 10° S 14:10:54 79° W 14:17:00 10° N
Cosmos 2233 Rocket 4.1 14:05:34 10° SSW 14:11:52 62° W 14:18:03 10° N
Cosmos 2333 Rocket 2.5 14:07:04 10° SW 14:12:31 48° WNW 14:17:56 10° N
COSMOS 2428 3.7 14:07:06 10° SSW 14:12:41 52° ESE 14:18:13 10° NE
USA 234 4.2 14:07:06 10° ESE 14:13:21 44° NE 14:19:33 10° NNW
Envisat 4.1 14:09:40 10° NNW 14:13:49 25° W 14:17:59 10° SW
IRS-1C 4.2 14:15:30 10° NNE 14:20:51 88° WNW 14:26:17 10° SSW
Cosmos 2297 Rocket 3.4 14:17:26 10° N 14:22:45 43° ENE 14:28:07 10° SE
Cosmos 1544 Rocket 3.9 14:18:29 10° N 14:22:47 70° E 14:27:11 10° SSE
Cosmos 921 Rocket 3.3 14:19:38 10° SSW 14:23:40 44° W 14:27:38 10° N
SL-16 R/B 4.0 14:24:09 10° WSW 14:26:11 12° W 14:28:13 10° WNW
Lacrosse 5 rocket 3.0 14:24:45 10° W 14:26:15 12° WNW 14:27:44 10° NW
YAOGAN 6 4.3 14:24:32 10° NW 14:26:16 13° W 14:28:00 10° WSW
CZ-2C R/B 2.9 14:21:55 10° S 14:27:23 61° WSW 14:32:52 10° NNW
